Temp
68 68 68 68 67 67 68 68 68 66 64 64 64 64 63 63 60 58 58 61 62 66 70 67 71 73 73 73 75 75 75 76 76 75 75 76 76 75 73 73 73 73 72 72 72 73 73 73 74 75 75 75 75 76 76 76 76 77 76 77 77 77 77 76 76 76 76 76 76 76 76 77 78 79
68 69 69 68 67 68 68 68 67 65 65 64 64 64 64 64 62 61 59 60 64 64 68 70 69 72 73 75 75 75 75 76 77 76 76 75 76 74 73 72 72 72 72 71 71 72 72 73 73 73 73 73 74 75 75 75 75 75 75 76 76 76 76 75 75 76 76 76 76 75 75 76 76 76
69 67 67 66 66 67 67 67 66 66 65 65 64 64 64 63 63 62 61 57 63 68 65 68 72 72 72 75 73 74 74 76 77 76 75 76 75 74 74 72 72 71 71 71 70 70 70 71 72 72 72 72 73 74 74 74 74 74 75 75 76 75 75 75 75 75 75 75 75 74 74 75 75 75
69 67 66 65 66 66 66 66 66 65 64 65 64 63 62 61 62 62 60 58 58 64 65 66 69 71 72 73 73 73 74 77 77 75 75 76 76 75 73 73 72 71 71 71 71 70 70 70 71 71 72 72 73 73 73 73 73 73 74 74 75 75 74 73 73 74 74 75 74 74 74 74 74 75
68 67 66 65 66 66 66 65 65 65 64 63 63 63 61 60 61 60 59 57 58 62 66 65 66 69 70 70 72 72 73 73 74 75 74 75 75 75 75 76 74 72 70 70 70 69 70 70 70 71 71 72 72 73 73 72 72 72 72 72 73 73 73 72 72 73 74 74 74 74 74 74 73 73
68 68 66 66 66 66 66 64 64 63 63 62 62 61 62 59 60 61 59 58 58 57 62 63 66 66 70 68 72 71 72 73 75 74 73 73 73 73 75 75 77 73 71 68 68 68 69 70 70 70 71 71 71 72 72 71 71 71 71 70 71 71 70 70 71 72 72 73 73 73 73 73 73 73
68 68 66 66 67 68 65 64 64 63 62 62 61 61 61 60 60 61 60 59 58 58 59 63 62 64 66 67 69 72 73 73 74 73 74 73 73 73 73 73 76 74 71 69 68 68 69 69 70 70 70 70 70 70 70 69 70 69 69 69 70 70 69 69 70 71 71 72 72 73 72 72 72 72
67 67 66 66 67 67 65 64 63 62 63 62 61 60 60 60 60 61 61 61 59 59 58 61 62 63 64 66 69 71 72 72 73 74 74 75 73 74 74 73 74 74 71 70 68 68 68 68 69 69 69 69 68 68 67 68 68 67 67 68 68 68 68 67 68 70 69 69 70 71 71 71 71 70
67 67 66 67 66 66 65 64 63 62 62 62 61 60 60 60 60 61 62 62 61 59 58 60 63 64 64 66 68 70 69 70 71 73 73 74 74 74 75 75 75 73 71 71 70 68 68 68 68 68 68 68 68 67 67 66 67 66 66 66 66 66 67 66 66 67 67 67 68 68 68 69 70 70
67 67 66 66 67 65 64 65 64 63 62 61 61 60 60 60 60 60 62 63 62 60 59 60 60 63 63 64 66 68 69 68 68 69 71 72 73 72 71 73 75 76 76 75 74 70 69 69 68 68 68 68 68 67 66 65 65 64 64 63 63 64 65 65 66 66 65 66 66 67 67 68 68 68
67 67 67 67 65 64 64 65 65 63 62 63 61 61 61 61 60 61 61 62 61 60 59 59 60 61 64 64 63 67 69 69 68 66 66 66 69 70 70 71 73 74 74 73 72 72 72 71 70 68 67 68 68 67 66 65 63 63 62 61 61 61 62 62 64 65 64 64 64 64 64 65 67 68
66 67 67 67 64 64 63 64 65 64 63 62 61 61 61 60 60 60 61 60 60 59 59 58 59 61 61 63 66 67 67 65 65 67 66 65 67 68 69 70 70 72 72 72 74 72 70 70 69 67 67 67 67 67 66 66 65 63 62 61 62 62 61 61 62 62 62 62 61 61 62 62 64 66
66 67 67 65 64 65 68 64 63 63 62 63 60 61 61 61 60 60 60 60 59 58 58 58 60 59 60 61 62 63 63 63 64 67 68 67 68 69 69 69 71 71 70 71 72 73 74 73 72 71 70 69 68 67 67 68 68 65 62 61 63 63 62 61 61 61 61 61 60 60 60 61 62 64
66 66 65 66 69 66 65 64 62 60 58 58 61 61 61 60 59 59 59 59 58 58 57 58 58 58 58 61 62 62 64 66 67 66 66 65 67 68 67 69 70 72 71 70 69 71 74 74 74 73 72 73 70 70 69 69 69 67 64 63 63 63 63 61 61 60 60 60 60 59 59 60 62 62
65 66 65 64 68 68 67 66 65 63 60 58 57 57 57 58 59 59 58 58 58 58 58 58 58 58 58 60 63 63 64 65 65 64 66 66 66 65 64 63 68 71 72 70 69 69 73 74 72 73 73 73 73 71 71 69 68 66 65 64 63 63 63 63 62 61 60 59 59 58 58 59 60 60
64 64 65 65 67 66 66 66 65 65 64 61 59 58 57 57 57 57 59 59 58 58 57 58 59 59 59 60 62 63 64 64 64 65 65 65 65 65 64 65 65 69 73 70 69 69 73 74 73 73 74 74 74 74 70 68 67 66 65 64 64 63 63 63 63 63 62 60 60 60 60 60 60 60
64 63 65 65 66 66 68 67 65 64 64 62 60 58 58 58 58 59 59 58 59 60 58 58 58 59 60 60 62 64 64 65 63 63 63 64 65 65 65 66 68 69 72 71 69 68 72 72 70 71 74 76 76 75 70 68 67 66 65 65 64 64 63 63 63 63 63 62 60 60 60 59 60 59
64 64 63 63 64 64 64 64 64 64 62 62 61 61 61 61 62 59 59 58 58 58 60 60 59 61 62 60 62 65 65 63 61 61 61 64 64 65 65 68 70 72 72 71 69 68 70 70 68 69 74 76 76 76 72 67 67 66 65 65 64 64 63 63 63 63 63 62 61 60 59 58 58 58
65 64 64 63 63 63 63 64 64 62 60 60 61 60 60 61 61 62 64 65 65 65 65 63 63 63 64 63 64 65 65 65 64 63 63 64 65 66 68 68 69 68 69 71 70 66 70 72 69 70 73 75 75 77 72 68 67 66 64 64 64 64 63 63 63 63 62 62 61 60 58 57 57 56
64 64 64 63 62 62 62 61 59 59 59 58 59 59 59 60 61 63 61 61 61 63 63 63 63 62 63 60 61 62 63 63 64 65 64 63 62 62 63 63 66 66 67 69 68 67 68 71 69 70 73 74 74 75 76 69 65 65 64 65 64 64 63 63 63 63 62 62 61 60 57 56 55 54
65 65 65 63 62 62 62 57 55 56 55 57 58 58 58 59 60 61 64 62 60 60 58 57 57 57 57 57 57 57 57 60 61 61 59 59 60 59 60 63 64 65 67 68 69 68 67 70 70 70 71 72 72 74 75 76 68 64 64 64 64 63 63 63 62 62 62 62 61 60 59 56 55 55
64 65 69 69 65 62 61 54 55 54 55 55 56 57 57 58 58 60 63 64 64 60 59 59 60 60 60 60 60 60 59 58 59 60 57 60 60 59 61 62 65 66 67 68 70 67 67 70 70 70 70 69 70 73 74 75 73 65 63 63 64 63 63 63 62 62 62 61 60 59 58 56 55 57
63 62 65 68 63 60 56 52 51 51 52 54 55 56 57 57 57 60 62 60 60 61 63 64 65 65 64 66 67 67 62 61 62 64 61 62 60 59 62 63 64 63 65 70 71 66 67 68 69 70 65 65 69 72 71 71 73 72 69 68 67 63 63 62 60 59 59 60 59 58 56 55 55 60
61 60 61 63 59 54 53 51 52 52 51 53 54 56 57 57 57 61 59 59 59 61 62 62 63 64 65 66 66 66 66 66 67 66 64 63 62 61 62 65 64 63 66 69 71 68 70 69 68 70 69 66 64 66 70 70 71 71 70 68 68 62 62 60 57 56 56 56 56 57 55 53 55 61
59 60 60 61 62 57 51 50 49 49 49 50 54 55 57 59 58 54 55 59 58 61 61 62 62 63 64 64 64 64 64 64 65 66 65 64 65 65 65 65 65 66 69 70 70 71 68 69 68 69 67 66 65 66 66 69 68 67 67 68 66 62 62 62 61 59 55 54 54 54 53 54 54 61
58 59 59 61 61 56 50 51 49 48 49 49 55 58 52 50 52 56 60 60 60 60 60 60 60 61 61 61 61 62 63 63 63 64 65 65 65 68 70 69 67 66 67 71 67 71 69 68 69 67 65 64 65 65 64 66 68 67 68 67 66 64 63 63 63 61 59 59 57 55 56 53 54 56
58 59 60 61 61 53 50 49 49 50 47 50 56 50 49 51 53 57 59 59 58 58 59 59 58 59 60 59 59 60 61 63 63 63 63 66 67 68 71 73 73 71 72 73 72 72 70 68 69 68 65 65 65 64 62 63 67 68 67 67 66 64 65 65 64 63 61 60 61 54 53 52 53 56
59 59 60 59 53 49 47 48 49 50 49 56 50 49 51 53 55 59 58 57 57 58 57 57 57 58 59 59 59 60 61 62 63 63 64 65 69 69 70 72 73 73 73 71 71 72 71 69 67 67 68 65 64 63 64 64 66 67 67 68 68 66 66 67 66 65 63 63 62 58 58 56 55 55
60 57 52 50 50 51 50 50 50 52 52 52 52 52 54 57 58 57 56 56 56 56 56 56 57 57 58 58 60 61 62 63 63 62 62 65 69 71 71 71 72 72 74 74 71 71 71 70 67 67 67 66 65 65 65 63 65 66 67 66 66 66 66 68 68 66 65 65 63 60 60 60 58 58
56 54 53 53 53 54 56 56 57 59 58 56 55 56 58 57 57 56 55 55 55 55 55 56 56 57 58 58 61 62 62 61 60 60 60 61 66 69 69 68 69 71 73 74 72 70 70 70 68 67 67 66 66 65 65 64 63 65 66 66 67 68 68 68 68 67 66 65 65 62 63 65 62 60
57 56 56 56 54 53 54 57 58 58 59 59 59 58 58 57 57 56 56 55 55 55 55 56 56 57 58 60 61 59 58 59 59 59 60 59 59 65 67 66 65 67 70 71 70 70 70 69 68 68 66 65 65 66 66 65 64 65 65 66 66 65 67 68 68 68 67 67 66 65 66 66 65 64
54 55 54 56 61 63 60 58 58 58 57 59 58 57 57 57 57 59 58 58 55 55 56 56 57 57 57 57 58 58 58 58 59 59 59 58 58 61 65 64 64 65 66 67 68 69 71 69 68 68 68 66 65 65 65 65 64 65 65 66 66 66 68 68 68 68 68 67 65 65 65 66 65 65
51 54 57 59 62 61 60 58 58 56 56 56 56 58 57 56 55 55 53 52 53 54 55 55 55 55 56 56 57 57 57 57 59 60 58 59 58 58 60 63 63 63 64 65 65 66 67 67 69 68 67 67 67 66 65 64 64 65 65 65 65 65 67 68 68 68 68 66 65 65 65 66 66 65
48 52 58 60 59 58 57 57 55 56 55 55 55 56 56 56 55 54 53 52 52 54 54 54 54 54 55 55 55 56 56 57 58 58 58 57 57 56 56 56 57 61 64 64 64 66 66 66 66 66 65 65 65 65 66 65 64 65 65 66 66 66 66 67 67 68 68 67 66 64 64 65 66 65
52 57 57 57 57 57 56 56 55 54 54 55 54 55 55 55 54 53 53 51 52 53 54 53 53 54 54 54 54 55 55 56 57 58 58 58 57 56 55 55 56 56 56 58 62 65 65 65 64 63 63 63 62 61 62 62 65 65 65 65 65 66 65 66 67 67 67 67 67 65 65 65 65 66
56 56 55 55 55 55 55 55 54 54 53 53 53 53 53 53 54 52 52 51 52 52 52 52 52 52 53 54 54 54 55 55 56 56 57 57 57 56 56 56 56 56 56 57 57 58 61 65 64 63 61 61 61 60 61 59 59 64 65 64 65 65 65 65 66 67 67 66 66 65 64 64 65 66
56 55 55 54 54 54 52 52 52 52 53 52 53 52 52 52 52 52 53 52 52 52 52 51 51 51 52 53 53 54 54 54 54 55 56 57 57 57 56 56 56 55 55 56 58 58 58 58 61 63 62 60 60 59 59 62 56 53 59 64 64 65 64 65 65 65 66 66 66 65 65 64 65 66
54 53 54 53 53 52 52 53 53 51 51 52 51 52 52 51 52 52 53 52 52 52 52 51 51 51 51 52 52 53 53 53 54 54 55 56 56 56 56 56 55 55 55 55 57 58 58 57 57 57 59 60 60 59 58 59 59 57 50 57 65 65 66 65 65 64 65 65 65 65 65 64 64 65
53 53 54 52 52 52 52 52 52 51 50 50 50 50 51 51 51 51 51 51 51 51 52 51 50 50 50 51 51 52 52 52 52 53 54 55 55 55 55 56 56 56 55 55 56 57 58 57 57 57 57 56 56 57 58 57 56 57 54 48 57 65 65 65 64 64 64 63 63 63 63 63 61 60
54 54 53 53 52 52 52 52 51 50 50 51 50 50 50 50 50 50 50 50 50 51 51 51 50 50 50 51 51 51 52 52 52 52 53 53 54 54 54 55 56 56 56 55 54 55 57 58 58 57 57 58 59 60 60 60 59 59 58 56 48 53 59 64 65 64 63 63 63 62 62 63 63 63
53 52 52 53 52 52 51 50 49 50 49 49 50 51 50 49 49 49 50 50 50 49 50 50 51 51 51 52 52 50 49 51 52 52 52 52 53 54 54 54 54 56 56 55 55 55 56 58 61 61 62 59 61 61 58 56 55 56 57 57 53 52 52 53 58 62 64 64 64 63 62 62 62 62
52 51 51 52 53 52 50 49 49 49 50 49 49 50 49 50 49 50 50 50 48 49 49 50 50 51 52 52 53 52 50 50 51 51 52 51 51 52 52 52 52 53 55 55 55 56 59 61 62 61 60 60 59 57 55 55 55 56 57 58 59 56 54 53 54 54 55 57 61 62 61 61 62 61
53 51 51 53 54 52 49 50 48 48 48 48 48 48 48 48 47 47 47 47 47 48 48 49 49 51 51 52 53 53 52 51 50 51 51 51 51 51 50 50 51 52 53 55 57 58 59 60 60 59 59 59 58 58 55 56 56 57 57 58 58 59 59 58 56 55 55 54 54 55 59 61 60 58
53 54 54 52 50 49 49 48 48 48 48 48 48 47 47 46 45 46 46 46 46 46 47 48 49 50 51 52 52 53 53 53 53 51 51 51 51 51 51 50 51 51 52 53 55 57 58 58 59 59 58 58 58 57 56 57 56 57 57 57 58 58 58 58 59 57 58 56 54 55 55 55 56 57
51 52 51 50 48 48 49 48 49 47 47 47 46 46 46 45 45 44 44 45 45 46 47 47 48 49 50 51 52 51 52 52 52 53 52 52 51 50 50 51 50 50 50 51 52 54 57 57 57 58 58 58 58 58 59 58 57 57 57 57 57 58 58 58 56 56 55 55 53 53 53 55 55 54
MSLP
1016.55 1016.55 1016.55 1016.55 1016.55 1016.47 1016.35 1016.39 1016.43 1016.43 1016.55 1016.67 1016.75 1016.87 1017.15 1017.23 1017.35 1017.03 1016.55 1015.87 1015.47 1014.15 1014.15 1014.19 1012.83 1012.51 1012.23 1012.03 1011.55 1011.39 1011.15 1010.91 1010.87 1010.95 1010.91 1010.79 1010.75 1010.71 1010.83 1010.99 1011.07 1011.11 1011.19 1011.31 1011.47 1011.63 1011.83 1011.99 1012.11 1012.19 1012.31 1012.47 1012.67 1012.87 1013.11 1013.31 1013.51 1013.71 1013.83 1013.99 1014.11 1014.23 1014.39 1014.55 1014.67 1014.75 1014.83 1014.91 1014.95 1015.03 1015.11 1015.19 1015.27 1015.35
1016.39 1016.39 1016.35 1016.31 1016.39 1016.23 1016.23 1016.27 1016.19 1016.31 1016.39 1016.51 1016.59 1016.63 1016.63 1016.75 1017.03 1016.91 1016.75 1015.67 1015.27 1014.59 1013.79 1013.79 1013.35 1012.47 1012.31 1011.91 1011.59 1011.23 1010.99 1010.67 1010.59 1010.51 1010.47 1010.39 1010.23 1010.15 1010.27 1010.39 1010.51 1010.59 1010.67 1010.75 1010.91 1011.11 1011.31 1011.51 1011.67 1011.79 1011.91 1012.03 1012.23 1012.43 1012.63 1012.87 1013.07 1013.27 1013.47 1013.59 1013.71 1013.83 1013.99 1014.11 1014.27 1014.35 1014.43 1014.51 1014.59 1014.71 1014.79 1014.91 1014.99 1015.07
1016.27 1016.35 1016.39 1016.27 1016.31 1016.15 1016.15 1016.11 1016.19 1016.19 1016.27 1016.31 1016.35 1016.39 1016.39 1016.47 1016.59 1016.63 1016.67 1016.35 1014.63 1014.71 1014.23 1013.51 1013.11 1012.83 1012.23 1011.87 1011.55 1011.11 1010.71 1010.35 1010.19 1010.15 1010.07 1009.95 1009.83 1009.83 1009.83 1009.87 1009.95 1010.07 1010.11 1010.23 1010.39 1010.55 1010.79 1010.99 1011.19 1011.35 1011.51 1011.63 1011.79 1011.99 1012.19 1012.39 1012.59 1012.83 1012.99 1013.19 1013.31 1013.43 1013.59 1013.71 1013.87 1013.99 1014.07 1014.11 1014.23 1014.35 1014.47 1014.59 1014.67 1014.75
1016.15 1016.23 1016.31 1016.23 1016.19 1016.07 1016.07 1016.11 1016.15 1016.19 1016.19 1016.23 1016.27 1016.31 1016.31 1016.27 1016.23 1016.35 1016.51 1016.47 1015.51 1014.75 1014.47 1013.67 1012.99 1012.67 1012.23 1011.67 1011.55 1011.07 1010.55 1010.07 1009.95 1009.79 1009.63 1009.47 1009.51 1009.67 1009.67 1009.47 1009.39 1009.47 1009.59 1009.71 1009.79 1009.95 1010.11 1010.35 1010.59 1010.83 1011.07 1011.19 1011.35 1011.51 1011.71 1011.95 1012.15 1012.35 1012.55 1012.75 1012.91 1013.03 1013.19 1013.35 1013.47 1013.59 1013.67 1013.75 1013.87 1013.99 1014.11 1014.23 1014.31 1014.43
1016.19 1016.27 1016.15 1016.11 1015.99 1015.87 1015.99 1016.03 1015.99 1016.07 1016.11 1016.15 1016.19 1016.23 1016.31 1016.23 1016.03 1016.07 1016.19 1016.15 1015.39 1014.51 1014.11 1013.67 1013.23 1012.51 1012.27 1011.63 1011.15 1010.95 1010.47 1010.07 1009.75 1009.47 1009.23 1009.15 1009.23 1009.27 1009.23 1008.99 1008.83 1008.91 1009.07 1009.23 1009.43 1009.55 1009.67 1009.79 1009.99 1010.27 1010.51 1010.71 1010.87 1011.07 1011.27 1011.47 1011.71 1011.91 1012.11 1012.31 1012.47 1012.63 1012.79 1012.95 1013.11 1013.23 1013.31 1013.39 1013.51 1013.59 1013.71 1013.83 1013.95 1014.07
1016.11 1016.23 1016.07 1015.99 1015.83 1015.71 1015.79 1015.79 1015.83 1015.87 1015.95 1016.03 1016.15 1016.19 1016.23 1016.23 1015.99 1015.71 1015.83 1015.67 1015.51 1014.79 1014.03 1013.43 1012.87 1012.63 1012.19 1011.71 1010.71 1010.75 1010.39 1009.95 1009.59 1009.43 1009.15 1008.95 1008.95 1008.99 1008.83 1008.67 1008.43 1008.31 1008.43 1008.59 1008.79 1008.99 1009.15 1009.31 1009.51 1009.75 1009.95 1010.15 1010.35 1010.59 1010.79 1010.99 1011.19 1011.43 1011.67 1011.83 1012.03 1012.23 1012.39 1012.55 1012.67 1012.79 1012.91 1013.03 1013.15 1013.27 1013.35 1013.47 1013.55 1013.67
1015.95 1015.91 1015.83 1015.79 1015.63 1015.55 1015.63 1015.63 1015.59 1015.59 1015.71 1015.75 1015.87 1015.87 1015.91 1015.99 1015.87 1015.67 1015.51 1015.47 1015.19 1014.79 1014.19 1013.67 1012.91 1012.51 1012.03 1011.75 1010.79 1010.27 1009.87 1009.55 1009.39 1009.31 1008.95 1008.79 1008.63 1008.51 1008.47 1008.43 1008.19 1007.95 1007.95 1008.03 1008.19 1008.43 1008.63 1008.87 1009.07 1009.23 1009.39 1009.59 1009.87 1010.11 1010.31 1010.51 1010.71 1010.95 1011.15 1011.35 1011.55 1011.75 1011.91 1012.07 1012.23 1012.35 1012.47 1012.63 1012.75 1012.87 1012.99 1013.07 1013.19 1013.27
1015.83 1015.75 1015.71 1015.55 1015.43 1015.35 1015.43 1015.39 1015.39 1015.35 1015.39 1015.47 1015.55 1015.59 1015.55 1015.59 1015.63 1015.47 1015.27 1015.15 1015.03 1014.59 1014.31 1013.43 1013.07 1012.27 1012.07 1011.27 1010.59 1009.99 1009.51 1009.35 1009.19 1008.99 1008.59 1008.27 1008.23 1008.07 1007.95 1007.99 1007.91 1007.63 1007.59 1007.67 1007.79 1007.95 1008.15 1008.43 1008.67 1008.79 1008.91 1009.11 1009.35 1009.59 1009.83 1010.03 1010.23 1010.43 1010.63 1010.87 1011.07 1011.23 1011.39 1011.59 1011.71 1011.87 1012.03 1012.19 1012.35 1012.47 1012.55 1012.67 1012.79 1012.87
1015.59 1015.51 1015.43 1015.27 1015.19 1015.15 1015.23 1015.15 1015.11 1015.07 1015.15 1015.15 1015.23 1015.31 1015.27 1015.31 1015.27 1015.19 1015.03 1014.83 1014.63 1014.43 1014.11 1013.35 1012.67 1012.15 1011.75 1011.15 1010.43 1009.91 1009.75 1009.19 1008.91 1008.59 1008.43 1008.11 1007.91 1007.71 1007.43 1007.43 1007.27 1007.19 1007.15 1007.19 1007.27 1007.43 1007.63 1007.91 1008.15 1008.31 1008.47 1008.63 1008.83 1009.03 1009.27 1009.51 1009.71 1009.91 1010.15 1010.35 1010.55 1010.75 1010.91 1011.07 1011.27 1011.43 1011.59 1011.75 1011.91 1012.03 1012.15 1012.23 1012.35 1012.47
1015.27 1015.23 1015.07 1014.99 1014.91 1015.03 1015.23 1015.19 1014.91 1014.79 1014.83 1014.87 1014.99 1015.07 1015.07 1015.03 1015.03 1014.95 1014.67 1014.47 1014.31 1014.11 1013.71 1013.35 1012.59 1011.87 1011.63 1010.87 1010.31 1009.71 1009.39 1009.23 1008.99 1008.63 1008.19 1007.87 1007.63 1007.55 1007.47 1007.19 1006.95 1006.83 1006.87 1007.03 1006.99 1007.07 1007.27 1007.43 1007.63 1007.79 1007.95 1008.15 1008.31 1008.51 1008.71 1008.95 1009.19 1009.43 1009.63 1009.87 1010.07 1010.27 1010.43 1010.63 1010.79 1010.99 1011.19 1011.35 1011.51 1011.63 1011.75 1011.83 1011.95 1012.07
1014.83 1014.75 1014.71 1014.67 1014.83 1014.91 1014.79 1014.83 1014.79 1014.63 1014.59 1014.67 1014.71 1014.75 1014.79 1014.75 1014.83 1014.67 1014.43 1014.23 1014.07 1013.83 1013.43 1012.87 1012.47 1011.87 1011.11 1010.87 1010.31 1009.47 1009.07 1008.79 1008.67 1008.79 1008.59 1008.23 1007.59 1007.35 1007.27 1007.23 1006.79 1006.59 1006.63 1006.47 1006.51 1006.63 1006.83 1006.99 1007.23 1007.35 1007.47 1007.63 1007.79 1007.99 1008.19 1008.43 1008.67 1008.91 1009.15 1009.39 1009.59 1009.79 1009.99 1010.19 1010.39 1010.59 1010.79 1010.99 1011.15 1011.27 1011.35 1011.43 1011.55 1011.75
1014.51 1014.47 1014.39 1014.39 1014.35 1014.35 1014.43 1014.39 1014.31 1014.27 1014.39 1014.39 1014.47 1014.39 1014.47 1014.51 1014.55 1014.43 1014.19 1013.99 1013.79 1013.51 1013.11 1012.71 1012.15 1011.63 1011.11 1010.43 1009.91 1009.31 1009.03 1008.91 1008.51 1008.27 1008.35 1008.35 1007.83 1007.47 1007.11 1006.87 1006.91 1006.63 1006.59 1006.67 1006.55 1006.43 1006.55 1006.71 1006.87 1006.95 1006.99 1007.11 1007.27 1007.51 1007.79 1007.99 1008.23 1008.47 1008.71 1008.95 1009.15 1009.35 1009.59 1009.79 1009.99 1010.19 1010.39 1010.59 1010.79 1010.87 1010.95 1011.07 1011.23 1011.39
1014.31 1014.23 1014.11 1014.07 1014.07 1014.07 1014.03 1013.95 1013.87 1013.87 1013.91 1014.07 1014.27 1014.11 1014.15 1014.19 1014.23 1014.15 1013.99 1013.75 1013.51 1013.19 1012.87 1012.27 1011.75 1011.47 1011.03 1010.47 1010.07 1009.59 1009.27 1009.11 1008.71 1007.95 1007.75 1007.67 1007.35 1007.15 1007.07 1006.63 1006.35 1006.35 1006.59 1006.47 1006.43 1006.35 1006.23 1006.55 1006.63 1006.79 1006.99 1006.87 1007.03 1007.23 1007.39 1007.51 1007.71 1007.95 1008.19 1008.47 1008.71 1008.91 1009.11 1009.35 1009.51 1009.71 1009.91 1010.15 1010.35 1010.47 1010.55 1010.67 1010.87 1010.99
1014.15 1014.07 1013.95 1013.91 1013.87 1013.87 1013.83 1013.71 1013.59 1013.55 1013.55 1013.63 1013.67 1013.67 1013.79 1013.87 1013.95 1013.91 1013.71 1013.43 1013.11 1012.87 1012.55 1012.11 1011.67 1011.35 1010.87 1010.35 1009.91 1009.59 1009.03 1008.51 1008.07 1007.87 1007.71 1007.75 1007.19 1007.07 1006.87 1006.43 1006.03 1005.83 1006.15 1006.47 1006.55 1006.03 1005.75 1006.07 1006.23 1006.31 1006.47 1006.19 1006.47 1006.67 1006.95 1007.03 1007.07 1007.31 1007.63 1007.95 1008.19 1008.39 1008.59 1008.83 1009.03 1009.23 1009.47 1009.71 1009.91 1010.03 1010.15 1010.31 1010.47 1010.63
1014.11 1013.95 1013.83 1013.79 1013.71 1013.63 1013.59 1013.43 1013.31 1013.23 1013.23 1013.27 1013.31 1013.35 1013.39 1013.51 1013.59 1013.59 1013.35 1012.99 1012.63 1012.47 1012.23 1011.79 1011.47 1011.11 1010.67 1010.03 1009.59 1009.27 1008.79 1008.35 1008.03 1007.71 1007.43 1007.23 1007.11 1007.15 1007.23 1007.03 1005.87 1005.27 1005.59 1006.07 1006.23 1005.91 1005.39 1005.67 1006.11 1005.95 1005.87 1005.75 1005.91 1006.03 1006.11 1006.15 1006.47 1006.71 1007.03 1007.35 1007.63 1007.87 1008.11 1008.35 1008.63 1008.83 1009.03 1009.23 1009.43 1009.59 1009.75 1009.91 1010.07 1010.27
1013.91 1013.83 1013.75 1013.63 1013.55 1013.47 1013.39 1013.27 1013.11 1013.03 1012.91 1012.91 1012.91 1012.95 1013.03 1013.03 1012.99 1012.91 1012.87 1012.59 1012.31 1012.11 1011.91 1011.51 1011.07 1010.71 1010.31 1009.75 1009.31 1008.83 1008.51 1008.15 1007.75 1007.35 1007.15 1006.91 1006.83 1006.79 1006.75 1006.35 1006.23 1004.99 1004.91 1005.63 1005.91 1005.59 1004.99 1005.15 1005.51 1005.67 1005.31 1005.23 1005.23 1005.27 1005.35 1005.63 1005.91 1006.19 1006.47 1006.79 1007.07 1007.35 1007.63 1007.91 1008.15 1008.35 1008.55 1008.75 1008.95 1009.11 1009.31 1009.51 1009.71 1009.91
1013.63 1013.59 1013.59 1013.55 1013.39 1013.27 1013.11 1013.03 1012.91 1012.87 1012.75 1012.63 1012.63 1012.67 1012.63 1012.55 1012.39 1012.19 1012.07 1012.11 1012.03 1011.63 1011.55 1011.27 1010.71 1010.35 1009.83 1009.47 1008.95 1008.47 1008.19 1007.87 1007.79 1007.35 1007.03 1006.55 1006.31 1006.15 1006.15 1005.67 1005.39 1004.91 1004.43 1005.11 1005.47 1005.47 1004.79 1004.87 1005.27 1005.39 1004.75 1004.67 1004.67 1004.75 1004.95 1005.15 1005.39 1005.67 1005.99 1006.31 1006.55 1006.83 1007.07 1007.35 1007.63 1007.87 1008.07 1008.27 1008.43 1008.63 1008.87 1009.11 1009.35 1009.55
1013.39 1013.39 1013.43 1013.47 1013.35 1013.07 1012.95 1012.83 1012.71 1012.63 1012.63 1012.55 1012.51 1012.47 1012.39 1012.23 1011.91 1011.71 1011.59 1011.39 1011.19 1011.11 1010.99 1010.75 1010.43 1009.67 1009.39 1009.07 1008.51 1007.91 1007.67 1007.63 1007.43 1007.19 1006.79 1006.39 1006.03 1005.71 1005.43 1004.91 1004.71 1004.23 1004.03 1004.59 1004.95 1005.23 1004.67 1004.55 1005.15 1005.31 1004.47 1004.19 1004.27 1004.23 1004.31 1004.67 1004.95 1005.19 1005.51 1005.83 1006.07 1006.31 1006.59 1006.87 1007.15 1007.39 1007.59 1007.79 1007.95 1008.19 1008.47 1008.75 1008.99 1009.19
1013.07 1013.07 1013.07 1013.11 1013.07 1012.91 1012.75 1012.55 1012.43 1012.51 1012.43 1012.43 1012.39 1012.27 1012.07 1011.87 1011.67 1011.43 1011.15 1010.91 1010.67 1010.47 1010.23 1010.11 1009.87 1009.35 1008.75 1008.31 1007.83 1007.39 1007.03 1006.83 1006.59 1006.35 1006.15 1005.87 1005.63 1005.15 1004.67 1004.51 1004.27 1004.23 1003.75 1003.67 1004.23 1004.95 1004.03 1003.91 1004.71 1004.51 1004.11 1003.95 1003.95 1003.79 1003.87 1004.15 1004.43 1004.67 1004.99 1005.31 1005.59 1005.83 1006.07 1006.39 1006.63 1006.83 1007.07 1007.31 1007.55 1007.83 1008.15 1008.43 1008.71 1008.91
1012.79 1012.75 1012.75 1012.79 1012.79 1012.63 1012.47 1012.27 1012.39 1012.35 1012.35 1012.31 1012.19 1012.07 1011.83 1011.63 1011.39 1011.11 1010.63 1010.43 1010.19 1010.03 1009.79 1009.63 1009.43 1008.99 1008.39 1007.79 1007.35 1006.87 1006.51 1006.19 1005.87 1005.59 1005.31 1005.27 1005.35 1005.51 1005.15 1004.59 1004.07 1004.15 1003.59 1003.51 1003.83 1004.27 1003.95 1003.43 1004.03 1003.87 1003.51 1003.67 1003.91 1003.63 1003.63 1003.71 1003.95 1004.19 1004.51 1004.83 1005.11 1005.35 1005.59 1005.83 1006.07 1006.31 1006.59 1006.91 1007.19 1007.51 1007.83 1008.15 1008.39 1008.67
1012.55 1012.47 1012.43 1012.43 1012.43 1012.31 1012.27 1012.35 1012.27 1012.31 1012.19 1012.15 1012.03 1011.95 1011.79 1011.59 1011.35 1010.91 1010.27 1009.87 1009.67 1009.43 1009.23 1009.03 1008.71 1008.31 1007.79 1007.23 1006.67 1006.23 1005.83 1005.55 1005.27 1005.15 1005.07 1004.71 1004.87 1005.23 1004.99 1004.15 1003.87 1003.55 1003.35 1003.23 1003.23 1003.75 1003.83 1003.27 1003.39 1003.59 1003.43 1003.51 1003.59 1003.59 1003.51 1003.35 1003.51 1003.79 1004.03 1004.31 1004.59 1004.83 1005.07 1005.27 1005.55 1005.87 1006.19 1006.51 1006.83 1007.15 1007.47 1007.79 1008.11 1008.39
1012.35 1012.27 1012.15 1012.11 1012.07 1012.11 1012.15 1012.19 1012.11 1012.07 1012.11 1012.03 1012.03 1011.99 1011.87 1011.67 1011.35 1010.75 1010.19 1009.79 1009.43 1009.07 1008.79 1008.47 1008.11 1007.63 1007.11 1006.55 1005.99 1005.47 1005.03 1004.63 1004.39 1004.47 1004.15 1003.63 1004.23 1004.27 1004.07 1003.67 1003.15 1002.95 1002.91 1002.79 1002.63 1003.47 1003.11 1002.91 1002.99 1003.47 1003.31 1003.43 1003.27 1003.19 1003.15 1003.11 1003.15 1003.35 1003.63 1003.83 1004.07 1004.31 1004.51 1004.75 1005.07 1005.43 1005.79 1006.11 1006.47 1006.79 1007.11 1007.47 1007.87 1008.19
1012.19 1012.15 1012.07 1011.95 1011.87 1011.95 1011.95 1011.95 1011.95 1012.07 1012.19 1012.07 1012.03 1012.03 1011.91 1011.63 1011.19 1010.63 1010.27 1010.07 1009.63 1009.03 1008.51 1007.99 1007.51 1006.91 1006.35 1005.83 1005.35 1004.75 1004.27 1003.83 1003.35 1002.91 1002.79 1002.75 1003.11 1003.19 1003.11 1002.87 1002.83 1003.11 1002.59 1001.91 1001.95 1003.11 1002.79 1002.99 1002.75 1003.11 1004.03 1004.35 1003.31 1002.83 1002.87 1002.95 1002.95 1003.07 1003.31 1003.59 1003.83 1003.91 1004.19 1004.47 1004.79 1005.11 1005.43 1005.79 1006.15 1006.51 1006.83 1007.15 1007.55 1007.83
1012.19 1012.15 1012.07 1011.83 1011.75 1011.87 1011.79 1011.79 1011.83 1011.99 1012.03 1011.83 1011.83 1011.87 1011.71 1011.35 1010.95 1010.47 1010.43 1010.11 1009.71 1009.11 1008.59 1008.07 1007.43 1006.79 1006.03 1005.39 1004.87 1004.35 1003.75 1003.15 1002.63 1002.11 1001.83 1001.71 1001.91 1002.23 1002.27 1002.07 1002.07 1002.15 1001.67 1001.03 1001.15 1002.15 1002.07 1002.23 1002.71 1002.47 1002.91 1003.95 1004.23 1003.03 1002.71 1002.87 1002.71 1002.75 1002.91 1003.23 1003.55 1003.71 1003.99 1004.31 1004.63 1004.91 1005.19 1005.59 1005.91 1006.23 1006.51 1006.87 1007.15 1007.39
1012.43 1012.19 1011.95 1011.75 1011.55 1011.63 1011.71 1011.63 1011.75 1011.91 1011.75 1011.59 1011.51 1011.59 1011.47 1011.19 1010.91 1010.79 1010.59 1009.83 1009.27 1008.91 1008.51 1008.03 1007.39 1006.63 1005.87 1005.23 1004.67 1004.07 1003.43 1002.83 1002.19 1001.55 1001.11 1000.99 1000.95 1001.07 1001.27 1001.35 1001.39 1001.39 1000.87 1000.43 1000.43 1001.15 1001.83 1001.83 1002.35 1002.39 1002.83 1002.99 1003.11 1003.27 1002.95 1002.71 1002.67 1002.75 1002.83 1002.99 1003.39 1003.67 1003.83 1004.07 1004.31 1004.71 1004.95 1005.23 1005.55 1005.83 1006.15 1006.47 1006.75 1006.83
1012.31 1012.03 1011.83 1011.67 1011.47 1011.59 1011.51 1011.31 1011.51 1011.47 1011.39 1011.43 1011.35 1011.23 1011.15 1011.07 1010.87 1010.51 1009.99 1009.51 1009.11 1008.83 1008.47 1008.03 1007.43 1006.71 1006.03 1005.31 1004.55 1003.83 1003.11 1002.43 1001.71 1001.23 1000.63 1000.23 1000.15 999.95 999.91 1000.15 1000.55 1000.87 1000.63 999.95 999.99 1000.39 1001.11 1001.59 1001.59 1002.23 1002.83 1003.31 1003.19 1003.15 1003.43 1003.19 1002.91 1002.83 1002.71 1002.75 1002.79 1003.03 1003.43 1003.95 1004.35 1004.67 1004.91 1005.11 1005.31 1005.51 1005.79 1006.15 1006.43 1006.55
1012.03 1011.79 1011.67 1011.47 1011.27 1011.35 1011.19 1010.99 1011.27 1011.23 1011.27 1011.19 1011.11 1011.03 1010.95 1010.79 1010.47 1010.11 1009.75 1009.43 1009.15 1008.87 1008.51 1008.07 1007.51 1006.87 1006.27 1005.47 1004.59 1003.71 1002.87 1001.95 1001.27 1000.67 1000.15 999.55 999.23 999.23 999.11 999.15 999.31 999.59 999.63 999.63 999.59 999.83 1000.35 1000.87 1000.79 1001.47 1002.51 1002.59 1002.95 1003.27 1003.71 1004.19 1003.67 1002.99 1002.99 1002.83 1002.95 1003.27 1003.39 1003.59 1004.03 1004.35 1004.59 1004.83 1005.03 1005.43 1005.75 1005.99 1006.15 1006.35
1011.87 1011.75 1011.55 1011.39 1011.23 1011.19 1010.95 1010.83 1010.99 1011.07 1011.03 1010.95 1010.87 1010.79 1010.67 1010.51 1010.31 1010.11 1009.87 1009.43 1009.27 1008.95 1008.51 1008.11 1007.59 1006.99 1006.31 1005.59 1004.71 1003.79 1002.95 1002.11 1001.23 1000.47 999.71 998.95 998.39 998.51 998.63 998.71 998.87 999.03 999.27 999.39 999.39 999.43 999.75 1000.31 1000.71 1000.71 1001.11 1001.91 1002.75 1003.19 1003.19 1003.11 1003.39 1003.23 1003.07 1002.87 1002.91 1003.11 1003.27 1003.43 1003.75 1004.11 1004.47 1004.63 1004.95 1005.35 1005.63 1005.95 1006.19 1006.47
1011.63 1011.55 1011.47 1011.31 1011.07 1010.87 1010.67 1010.63 1010.75 1010.79 1010.79 1010.75 1010.63 1010.59 1010.55 1010.39 1010.31 1010.15 1009.99 1009.79 1009.55 1009.11 1008.63 1008.23 1007.63 1007.03 1006.43 1005.75 1004.95 1003.99 1003.11 1002.11 1001.15 1000.27 999.43 998.55 997.95 997.87 998.19 998.39 998.59 998.79 998.91 999.03 999.15 999.15 999.31 999.71 1000.23 1000.51 1000.87 1001.19 1001.71 1002.03 1002.43 1002.83 1003.15 1003.31 1003.07 1003.15 1003.31 1003.03 1003.07 1003.19 1003.35 1003.71 1004.03 1004.31 1004.59 1004.87 1004.99 1005.19 1005.67 1005.99
1011.55 1011.47 1011.31 1011.07 1010.75 1010.55 1010.39 1010.47 1010.51 1010.59 1010.59 1010.55 1010.51 1010.47 1010.43 1010.39 1010.35 1010.27 1010.11 1009.87 1009.63 1009.27 1008.79 1008.27 1007.67 1007.07 1006.43 1005.63 1004.75 1003.95 1003.11 1002.23 1001.35 1000.51 999.67 998.87 998.03 997.75 998.03 998.55 998.71 998.59 998.59 998.59 998.71 998.83 998.99 999.35 999.79 1000.11 1000.63 1000.95 1001.07 1001.63 1001.95 1002.51 1002.95 1002.75 1002.83 1002.91 1002.71 1002.71 1002.83 1002.91 1003.15 1003.39 1003.79 1004.07 1004.23 1004.51 1004.67 1004.83 1005.11 1005.51
1011.67 1011.43 1011.11 1010.83 1010.47 1010.39 1010.35 1010.43 1010.51 1010.55 1010.55 1010.55 1010.51 1010.39 1010.35 1010.35 1010.35 1010.27 1010.19 1009.95 1009.71 1009.35 1008.91 1008.27 1007.67 1007.07 1006.39 1005.59 1004.67 1003.91 1003.27 1002.43 1001.55 1000.83 1000.03 999.27 998.67 998.03 997.83 998.23 998.67 998.75 998.55 998.39 998.35 998.47 998.71 998.99 999.35 999.67 1000.43 1000.79 1000.99 1001.11 1001.47 1001.83 1002.39 1002.59 1002.71 1002.63 1002.55 1002.91 1002.55 1002.67 1002.87 1003.19 1003.43 1003.75 1004.07 1004.35 1004.51 1004.67 1004.87 1005.07
1011.87 1011.51 1011.03 1010.43 1009.99 1010.03 1010.19 1010.31 1010.47 1010.55 1010.59 1010.55 1010.55 1010.43 1010.35 1010.35 1010.31 1010.23 1010.15 1009.91 1009.71 1009.31 1008.75 1008.27 1007.63 1006.99 1006.43 1005.83 1005.07 1004.31 1003.67 1002.95 1001.99 1001.19 1000.47 999.83 999.11 998.51 998.11 998.35 998.55 998.55 998.59 998.51 998.43 998.39 998.35 998.51 998.95 999.23 999.39 999.95 1000.71 1001.03 1001.23 1001.63 1001.95 1001.99 1002.27 1002.35 1002.23 1002.31 1002.35 1002.71 1002.87 1003.07 1003.19 1003.59 1004.03 1004.23 1004.27 1004.39 1004.59 1004.79
1011.75 1011.31 1010.71 1010.31 1010.31 1010.39 1010.47 1010.55 1010.67 1010.67 1010.67 1010.67 1010.59 1010.51 1010.43 1010.39 1010.39 1010.27 1010.15 1010.03 1009.71 1009.19 1008.71 1008.31 1007.91 1007.39 1006.79 1006.15 1005.35 1004.75 1004.11 1003.35 1002.55 1001.67 1000.91 1000.23 999.91 999.47 998.99 998.71 998.47 998.59 998.75 998.63 998.59 998.67 998.71 998.63 998.51 998.71 999.15 999.51 999.79 1000.15 1000.87 1001.67 1001.83 1001.67 1001.67 1001.99 1002.19 1002.47 1002.39 1002.39 1002.51 1002.71 1002.95 1003.51 1003.83 1003.95 1004.19 1004.19 1004.27 1004.43
1012.07 1011.03 1010.71 1010.63 1010.67 1010.71 1010.75 1010.91 1011.03 1011.03 1010.99 1010.91 1010.87 1010.75 1010.55 1010.47 1010.47 1010.31 1010.19 1010.11 1009.79 1009.27 1008.87 1008.59 1008.11 1007.59 1007.15 1006.63 1005.91 1005.23 1004.71 1004.03 1003.23 1002.43 1001.83 1001.39 1000.83 1000.31 1000.43 1000.27 999.83 999.15 998.59 998.39 998.43 998.51 998.59 998.91 999.15 999.31 999.35 999.63 999.83 1000.07 1000.31 1000.83 1001.35 1001.43 1001.51 1001.67 1002.03 1002.23 1002.07 1002.07 1002.19 1002.35 1002.59 1002.91 1003.39 1003.95 1004.11 1004.15 1004.07 1004.11
1011.35 1010.91 1010.91 1010.95 1010.87 1010.91 1010.99 1011.11 1011.27 1011.27 1011.35 1011.27 1011.23 1011.11 1010.91 1010.71 1010.71 1010.55 1010.39 1010.27 1009.91 1009.43 1009.03 1008.75 1008.39 1007.87 1007.47 1007.11 1006.51 1005.87 1005.31 1004.79 1003.99 1003.19 1002.43 1001.87 1001.35 1001.11 1001.15 1000.79 1000.47 1000.39 1000.11 999.27 998.55 998.35 998.43 998.83 999.11 999.51 999.95 1000.15 1000.59 1000.83 1000.71 1000.71 1000.83 1001.23 1001.51 1001.71 1001.71 1001.79 1001.95 1001.79 1001.95 1002.23 1002.55 1002.79 1003.11 1003.71 1003.91 1003.95 1003.99 1003.79
1011.11 1011.11 1011.15 1011.23 1011.27 1011.27 1011.35 1011.47 1011.51 1011.59 1011.67 1011.59 1011.51 1011.39 1011.19 1011.11 1010.99 1010.87 1010.71 1010.47 1010.15 1009.75 1009.35 1009.11 1008.75 1008.39 1007.87 1007.35 1006.87 1006.35 1005.79 1005.31 1004.63 1003.91 1003.11 1002.35 1001.95 1001.79 1001.63 1001.31 1001.03 1000.99 1000.63 999.95 999.43 999.15 998.75 998.23 998.63 999.27 999.87 1000.35 1000.71 1001.27 1001.19 1001.15 1001.11 1001.11 1001.39 1001.63 1001.51 1001.55 1001.59 1001.67 1001.71 1001.87 1002.31 1002.63 1002.71 1003.07 1003.55 1003.71 1003.71 1003.59
1011.31 1011.31 1011.47 1011.59 1011.67 1011.67 1011.71 1011.75 1011.83 1011.87 1011.83 1011.75 1011.63 1011.55 1011.43 1011.39 1011.27 1011.11 1010.91 1010.67 1010.35 1010.03 1009.71 1009.55 1009.27 1008.87 1008.31 1007.71 1007.15 1006.67 1006.19 1005.75 1005.27 1004.51 1003.91 1003.27 1002.71 1002.43 1001.99 1001.47 1001.47 1001.43 1000.91 1000.59 1000.03 999.39 999.35 998.75 998.23 998.67 999.47 1000.15 1000.59 1000.99 1001.23 1001.23 1001.47 1001.75 1001.63 1001.39 1001.43 1001.31 1001.47 1001.59 1001.75 1001.99 1002.03 1002.19 1002.51 1002.63 1002.91 1003.19 1003.39 1003.27
1011.43 1011.51 1011.67 1011.79 1011.83 1011.83 1011.87 1011.91 1011.91 1011.95 1011.91 1011.79 1011.75 1011.63 1011.47 1011.43 1011.35 1011.19 1010.99 1010.79 1010.55 1010.23 1009.91 1009.75 1009.43 1009.03 1008.67 1008.23 1007.79 1007.15 1006.63 1006.23 1005.67 1005.11 1004.51 1003.99 1003.51 1002.87 1002.35 1002.31 1002.23 1001.99 1001.67 1001.27 1000.71 1000.27 1000.15 999.67 999.11 999.39 999.43 999.99 1000.43 1000.83 1001.35 1001.55 1001.67 1001.99 1002.23 1001.59 1001.31 1001.19 1001.23 1001.59 1001.83 1001.99 1002.07 1002.07 1002.19 1002.39 1002.63 1003.07 1003.15 1003.11
1011.51 1011.59 1011.71 1011.83 1011.91 1011.87 1011.91 1011.87 1011.87 1011.91 1011.87 1011.83 1011.83 1011.75 1011.59 1011.51 1011.47 1011.27 1011.15 1011.07 1010.79 1010.51 1010.15 1009.91 1009.59 1009.27 1008.95 1008.59 1008.23 1007.91 1007.31 1006.83 1006.39 1005.87 1005.27 1004.71 1004.27 1003.87 1003.27 1002.95 1002.83 1002.67 1002.47 1002.11 1001.59 1001.27 1000.95 1000.43 1000.07 1000.07 1000.31 1000.87 1001.15 1001.03 1001.11 1001.63 1002.39 1002.47 1002.15 1001.83 1001.35 1000.99 1001.07 1001.19 1001.51 1001.67 1001.91 1002.19 1002.31 1002.39 1002.51 1002.55 1002.75 1002.91
1011.67 1011.67 1011.71 1011.75 1011.79 1011.83 1011.87 1011.91 1011.87 1011.83 1011.83 1011.83 1011.87 1011.83 1011.79 1011.67 1011.63 1011.55 1011.43 1011.31 1011.11 1010.83 1010.51 1010.19 1009.87 1009.43 1009.07 1008.75 1008.47 1008.15 1007.67 1007.23 1006.99 1006.59 1006.11 1005.55 1004.99 1004.75 1004.43 1003.87 1003.55 1003.43 1003.15 1002.95 1002.71 1002.43 1001.87 1001.31 1000.95 1001.07 1001.07 1000.91 1001.03 1000.99 1001.15 1001.63 1002.11 1001.95 1001.95 1002.19 1002.15 1001.79 1001.35 1000.91 1001.11 1001.47 1001.79 1001.79 1002.03 1002.39 1002.71 1002.79 1003.19 1003.15
1011.83 1011.87 1011.95 1011.99 1012.03 1012.03 1012.03 1012.03 1012.03 1011.95 1011.91 1011.87 1011.87 1011.91 1011.91 1011.83 1011.79 1011.75 1011.71 1011.63 1011.39 1011.11 1010.79 1010.47 1010.15 1009.79 1009.39 1008.99 1008.67 1008.51 1008.27 1007.71 1007.23 1006.91 1006.55 1006.15 1005.71 1005.43 1005.27 1004.79 1004.47 1004.03 1003.67 1003.59 1003.35 1003.03 1002.79 1002.39 1001.91 1001.51 1001.31 1001.07 1000.79 1000.63 1000.95 1001.67 1002.35 1002.71 1002.75 1002.79 1002.47 1002.15 1001.95 1001.83 1001.71 1001.39 1001.27 1001.51 1001.63 1001.83 1002.19 1002.59 1002.95 1003.19
1012.07 1012.19 1012.19 1012.23 1012.27 1012.31 1012.27 1012.23 1012.19 1012.15 1012.11 1012.07 1012.07 1012.11 1012.11 1012.07 1011.95 1011.95 1011.91 1011.79 1011.59 1011.31 1011.07 1010.75 1010.47 1010.07 1009.71 1009.31 1008.95 1008.67 1008.51 1008.23 1007.83 1007.51 1007.11 1006.79 1006.39 1005.99 1005.83 1005.79 1005.63 1005.07 1004.43 1004.03 1003.99 1003.79 1003.39 1002.87 1002.35 1001.99 1001.55 1001.11 1000.83 1000.95 1002.23 1002.91 1003.27 1003.19 1003.11 1003.07 1002.91 1002.67 1002.35 1002.35 1002.47 1002.63 1002.39 1002.03 1001.79 1001.59 1001.99 1002.51 1002.71 1003.23
1012.23 1012.35 1012.47 1012.43 1012.39 1012.39 1012.39 1012.35 1012.35 1012.35 1012.39 1012.31 1012.31 1012.31 1012.35 1012.27 1012.23 1012.19 1012.11 1011.99 1011.79 1011.55 1011.31 1011.03 1010.71 1010.39 1010.03 1009.63 1009.27 1008.99 1008.71 1008.43 1008.15 1007.95 1007.63 1007.35 1007.11 1006.83 1006.59 1006.47 1006.27 1005.75 1005.35 1004.91 1004.51 1004.31 1003.95 1003.43 1002.87 1002.47 1002.23 1001.99 1002.15 1002.07 1002.63 1002.95 1003.19 1003.35 1003.39 1003.39 1003.39 1003.27 1002.99 1002.83 1002.95 1003.03 1003.07 1002.51 1002.35 1002.07 1001.39 1001.35 1001.95 1002.99
1012.39 1012.51 1012.55 1012.55 1012.55 1012.59 1012.59 1012.55 1012.55 1012.59 1012.63 1012.63 1012.63 1012.59 1012.59 1012.59 1012.55 1012.55 1012.47 1012.35 1012.19 1011.91 1011.59 1011.35 1011.03 1010.63 1010.31 1009.91 1009.63 1009.27 1008.91 1008.71 1008.43 1008.19 1007.99 1007.83 1007.63 1007.35 1007.03 1006.75 1006.35 1005.99 1005.63 1005.47 1005.07 1004.63 1004.39 1004.11 1003.71 1003.31 1003.11 1003.07 1002.99 1002.87 1003.15 1003.15 1003.39 1003.55 1003.67 1003.79 1003.75 1003.59 1003.39 1003.31 1003.35 1003.51 1003.43 1002.83 1002.71 1002.55 1002.27 1002.11 1002.35 1002.59
1012.63 1012.59 1012.59 1012.59 1012.67 1012.71 1012.75 1012.79 1012.83 1012.91 1012.95 1013.03 1013.03 1013.03 1012.99 1012.99 1012.99 1012.95 1012.87 1012.75 1012.59 1012.31 1011.95 1011.67 1011.39 1010.99 1010.59 1010.19 1009.87 1009.63 1009.31 1008.99 1008.71 1008.43 1008.23 1007.95 1007.75 1007.55 1007.31 1006.99 1006.75 1006.35 1006.03 1005.83 1005.51 1005.03 1004.63 1004.43 1004.19 1003.99 1003.91 1003.83 1003.59 1003.55 1003.55 1003.55 1003.71 1003.83 1003.95 1003.95 1004.07 1004.07 1003.91 1003.79 1004.19 1004.51 1004.55 1004.31 1003.95 1003.71 1003.63 1003.43 1003.31 1003.39
Wind_Speed
3 2 2 2 3 3 3 1 3 4 3 3 4 3 5 6 11 12 10 10 10 9 5 9 7 4 6 8 8 9 9 11 13 11 11 11 11 15 19 20 19 19 19 19 20 20 22 23 24 24 24 25 25 25 24 23 23 23 22 22 22 21 21 21 20 20 20 20 20 19 18 17 18 18
3 2 2 2 2 2 1 1 2 2 3 3 3 4 4 4 8 10 14 14 7 11 7 6 9 8 8 8 8 7 8 11 12 10 11 11 11 17 20 20 20 19 20 20 20 21 21 23 23 24 24 24 24 24 24 24 23 22 22 22 22 21 21 20 20 20 20 20 19 18 17 17 16 16
2 3 3 2 2 2 1 1 0 1 2 3 2 3 2 3 4 8 10 13 7 6 12 10 10 11 12 10 10 9 8 10 12 11 11 11 15 19 17 20 20 20 20 19 19 20 21 22 23 23 23 23 23 23 24 24 23 23 23 22 22 22 21 20 20 19 19 19 18 17 16 16 15 15
3 3 4 3 2 2 2 0 0 1 2 2 3 2 2 2 3 3 6 10 14 8 11 12 12 12 12 12 12 12 11 10 14 11 11 12 16 13 11 17 20 19 20 20 21 23 24 24 24 24 23 23 23 23 23 23 23 23 23 22 22 22 21 20 20 20 20 20 19 17 16 16 16 16
2 4 3 3 3 3 2 2 1 0 1 2 2 2 2 4 3 3 4 9 12 9 7 10 11 13 12 13 10 12 12 12 9 9 10 11 10 9 9 11 17 19 18 19 19 20 21 23 24 24 23 23 23 23 23 23 23 23 23 23 22 22 21 21 20 21 21 20 19 18 17 16 16 16
2 5 4 3 4 3 3 3 1 1 1 1 2 3 3 5 5 4 3 6 9 13 10 12 10 12 12 14 11 11 12 12 10 10 8 8 8 9 9 9 9 17 17 17 18 19 20 21 23 23 23 23 23 24 24 23 23 23 23 23 22 22 22 21 21 21 21 20 19 18 17 17 16 16
5 4 4 4 4 3 3 3 3 2 2 2 3 4 3 5 6 5 5 6 9 12 11 11 13 11 11 12 13 11 10 10 10 11 10 9 8 8 10 10 9 13 16 18 18 19 20 21 22 23 23 23 23 23 23 23 23 23 23 23 22 22 22 22 22 22 21 20 19 19 18 17 17 17
5 5 4 5 5 4 4 4 3 3 3 3 3 4 4 4 5 5 5 6 8 10 12 11 12 11 12 13 13 11 10 10 10 10 11 9 9 9 9 11 10 12 16 16 17 18 20 21 22 22 22 22 22 22 22 22 22 22 22 22 22 22 22 22 22 22 21 20 20 20 19 18 17 16
5 5 5 6 5 4 5 4 4 4 4 4 4 4 5 4 5 5 6 7 8 10 12 13 11 11 11 11 12 11 11 10 10 10 11 11 10 10 10 9 10 14 18 18 17 17 19 21 22 22 22 22 22 22 22 22 22 22 22 22 22 22 22 22 21 21 21 21 20 19 19 18 17 17
6 5 5 5 6 3 2 4 5 4 5 4 4 4 5 5 5 6 7 7 9 10 11 11 13 11 11 11 10 10 9 10 10 9 10 10 9 8 9 9 9 7 7 8 9 11 14 18 22 22 22 22 22 22 22 22 22 22 22 22 22 22 22 22 21 21 20 20 20 19 18 18 17 16
6 5 5 4 1 2 3 5 7 5 4 4 5 5 5 5 5 7 7 8 9 10 11 11 10 11 10 9 11 9 9 11 10 10 9 10 7 7 8 10 8 6 6 6 10 10 10 13 14 18 21 22 22 22 22 22 22 21 22 22 22 22 21 21 20 20 20 19 19 18 18 17 16 16
4 4 4 2 3 3 4 5 6 5 6 4 5 5 4 5 6 7 8 8 9 10 10 10 11 9 11 10 9 10 9 9 9 8 9 11 10 9 7 8 8 6 7 8 7 8 9 11 14 17 19 21 22 22 20 21 20 21 21 21 21 21 20 20 19 19 19 19 19 18 18 16 16 16
4 4 5 4 3 3 7 10 10 9 7 4 5 6 5 5 6 7 8 8 9 9 9 11 9 9 10 10 9 9 9 9 10 8 7 10 10 9 9 8 7 7 7 8 8 9 8 8 9 9 9 11 15 16 19 16 20 21 20 21 21 21 20 20 20 20 20 19 19 18 17 16 16 16
5 5 4 3 6 8 10 11 11 11 10 9 8 7 6 6 6 7 9 10 9 8 10 10 11 11 11 11 10 10 10 11 11 11 10 10 10 9 10 9 8 7 8 8 9 10 8 8 9 9 10 10 11 10 11 12 14 17 20 20 21 21 21 21 20 20 19 19 19 18 17 16 16 16
5 5 4 3 5 7 8 9 11 11 9 10 12 13 11 9 7 8 11 11 9 8 10 10 11 11 12 12 11 10 11 10 11 10 10 10 10 10 10 12 8 7 9 9 10 11 8 8 10 9 10 10 9 10 11 16 19 19 19 21 21 21 21 20 20 20 20 19 19 18 17 17 17 16
4 4 4 4 4 4 5 6 6 7 9 10 10 9 8 10 12 13 11 11 10 10 10 11 12 12 12 12 11 11 10 10 11 11 10 11 10 10 11 10 11 4 10 10 10 12 8 9 10 11 11 10 10 11 14 18 19 20 20 20 21 20 20 20 21 21 20 20 19 18 17 17 16 16
4 4 4 5 5 4 7 6 5 5 5 6 7 6 9 11 13 14 14 15 13 10 10 11 13 13 14 13 12 11 12 11 12 12 12 12 10 9 11 11 11 6 9 10 10 11 9 8 9 11 11 10 9 11 14 18 18 19 20 20 20 20 21 21 21 21 20 20 19 18 18 17 16 16
5 5 4 5 6 6 5 5 6 5 4 3 3 4 6 7 10 11 12 13 15 12 9 10 12 14 13 14 14 15 13 13 12 12 13 12 12 11 12 12 11 8 8 11 8 10 9 7 6 11 11 9 9 9 12 17 18 19 20 20 20 20 21 21 21 21 20 19 18 18 17 16 16 15
6 4 5 5 6 7 7 7 7 4 3 3 5 6 7 7 7 8 9 8 7 7 7 9 11 14 15 14 15 14 13 13 13 13 14 14 13 12 10 9 10 10 7 10 9 13 8 7 10 12 11 9 9 9 11 16 19 20 20 20 20 21 21 21 21 20 19 19 18 17 16 15 15 15
5 5 5 5 6 6 7 7 3 2 1 3 5 7 7 7 7 8 9 12 11 9 9 10 11 13 16 20 19 18 16 14 14 13 13 12 12 12 12 12 8 10 8 9 8 7 7 6 9 10 8 7 9 9 9 12 18 19 20 20 21 21 21 21 21 20 19 18 16 15 15 15 14 14
5 5 5 5 5 6 4 3 7 4 4 3 5 6 7 7 7 9 9 11 12 13 15 17 18 20 22 23 24 23 25 19 16 12 12 14 11 11 14 13 10 10 7 7 10 10 9 6 7 8 6 8 9 9 9 9 13 18 19 20 21 21 21 21 20 18 16 16 15 15 15 14 14 14
5 5 8 6 5 4 0 4 4 2 1 3 4 5 6 7 8 9 8 8 9 14 15 16 17 18 19 20 20 20 19 20 16 11 13 13 10 13 13 13 9 7 7 8 9 7 10 6 7 7 3 4 6 8 8 9 9 13 15 19 20 20 20 20 19 17 16 16 16 15 15 14 13 9
4 3 5 10 6 1 3 5 3 1 3 2 3 3 5 8 9 8 8 10 11 11 12 12 13 13 15 14 13 15 19 19 19 11 13 12 13 14 13 12 8 8 8 9 12 10 8 7 7 7 4 5 5 6 8 8 7 7 7 9 12 17 17 15 15 15 16 15 15 14 15 15 12 7
5 4 5 7 4 3 5 4 3 3 4 3 2 3 5 7 9 8 9 10 10 10 11 12 13 14 14 14 13 13 13 13 14 13 10 12 13 13 13 12 11 11 8 7 14 12 7 8 7 7 7 5 4 3 6 7 7 7 7 7 7 7 9 10 9 14 14 13 15 15 15 15 13 8
6 6 6 5 7 3 5 6 7 3 6 6 2 4 4 6 10 11 9 11 11 9 10 11 12 12 13 13 13 12 12 12 12 11 9 12 14 14 14 13 11 11 8 6 17 10 8 7 8 6 5 3 1 1 2 4 4 5 5 7 6 5 7 7 6 8 10 15 16 16 15 15 16 11
6 5 6 5 7 1 5 12 8 4 6 5 2 4 7 10 11 9 7 6 7 8 9 9 11 12 13 13 14 14 13 13 13 12 11 10 14 15 15 13 11 11 11 8 17 12 8 7 8 7 4 4 5 2 2 1 3 3 6 6 8 8 8 7 6 8 8 8 8 9 11 15 15 15
6 5 5 6 9 8 12 14 7 4 4 5 1 7 9 9 12 9 6 7 7 7 8 9 10 12 12 13 15 15 15 15 15 13 12 11 12 15 15 15 11 10 6 6 10 10 9 6 6 9 8 8 7 2 2 2 3 4 5 6 5 6 6 7 7 8 8 7 7 10 10 11 13 15
6 6 5 6 11 13 14 13 8 3 4 2 5 6 9 10 8 6 7 7 7 7 7 9 10 11 12 13 14 15 15 15 15 14 13 11 11 14 13 14 13 11 8 6 9 10 9 7 5 5 10 11 9 9 7 3 2 5 7 4 5 6 6 6 7 6 6 5 6 7 6 6 5 7
5 6 10 13 13 13 14 12 4 2 5 6 5 5 7 8 6 7 6 6 7 7 7 8 9 10 11 12 13 15 15 15 14 12 10 9 8 11 13 11 11 10 9 8 7 8 9 9 8 6 7 7 8 7 7 6 8 5 4 6 5 6 7 7 7 7 8 7 7 9 9 8 7 7
7 10 12 13 13 10 6 1 1 1 1 4 7 5 4 4 5 5 7 7 7 7 8 8 10 10 11 12 13 14 14 13 13 13 12 10 6 7 10 10 10 9 9 9 9 8 8 7 7 9 7 6 8 8 8 6 5 5 5 6 3 4 6 7 7 7 7 8 7 8 6 7 8 8
6 10 9 8 11 9 4 3 4 2 2 3 4 2 1 2 4 5 5 6 7 7 7 9 9 9 10 11 13 14 14 14 14 13 12 9 8 5 7 9 9 10 9 8 7 9 8 8 9 10 8 6 5 7 6 6 6 5 5 5 7 6 5 7 6 7 7 6 6 5 6 6 7 9
7 7 8 9 3 5 5 3 2 1 0 2 4 4 3 2 3 5 7 7 5 5 6 7 8 9 11 11 12 13 13 14 14 14 13 12 12 10 1 3 6 8 8 6 5 3 6 11 10 9 10 10 9 5 5 6 7 7 5 6 7 3 5 7 6 6 7 7 6 7 6 6 7 7
6 4 4 2 5 5 5 5 6 4 4 3 4 4 4 3 5 5 6 8 8 8 8 9 9 10 10 11 11 12 13 14 15 14 15 16 13 13 11 5 4 3 6 7 7 7 5 5 7 9 8 8 9 10 8 6 6 6 7 6 5 6 5 5 5 7 8 7 7 6 6 6 6 7
4 4 3 5 5 5 6 6 5 5 6 6 6 6 5 5 6 6 7 7 8 8 8 8 9 10 10 11 12 12 12 13 13 14 14 13 12 14 12 12 11 8 5 8 7 8 9 6 5 5 6 5 4 2 5 8 7 7 7 6 7 7 7 6 6 6 10 9 8 7 7 7 7 7
3 2 5 5 5 5 6 6 5 5 5 5 6 6 6 6 8 7 7 8 8 8 9 9 9 9 9 10 11 12 12 12 12 12 11 10 13 12 12 13 12 10 9 8 1 5 9 10 8 9 6 8 6 4 7 4 7 7 6 6 6 7 7 7 7 7 8 8 8 8 7 6 7 7
3 5 5 6 6 5 6 5 4 5 5 5 5 6 6 7 7 7 8 9 8 8 8 10 10 10 10 10 10 10 11 11 11 11 12 12 12 12 12 12 12 12 9 7 8 8 4 9 12 11 10 7 7 6 2 7 8 1 8 7 5 6 5 6 6 8 8 8 8 8 9 9 7 7
5 5 6 6 5 5 5 4 5 4 5 4 5 5 5 5 6 6 6 7 7 7 7 8 8 9 10 11 10 10 11 11 11 11 11 11 10 10 11 13 14 12 12 12 10 9 8 3 7 11 11 9 9 8 4 2 9 13 3 4 5 6 6 6 6 7 7 7 8 7 6 6 7 7
5 5 5 4 4 3 3 3 2 3 4 4 4 5 4 4 5 5 6 6 7 7 7 8 8 9 9 9 11 10 10 11 11 11 11 11 12 12 11 11 12 12 12 12 11 11 9 6 9 8 4 6 7 7 6 3 2 8 10 2 4 6 6 7 6 6 7 5 7 6 4 5 5 5
4 4 5 4 3 3 2 2 2 2 3 4 5 5 5 4 6 5 6 7 7 7 7 8 9 9 9 9 9 10 9 10 11 11 11 11 12 12 11 11 11 10 11 13 12 11 10 10 10 9 10 9 5 2 4 5 6 4 12 19 4 5 9 9 8 7 6 5 5 4 3 3 6 10
3 3 2 2 2 3 3 3 2 2 3 4 5 5 5 5 5 6 7 7 7 7 7 8 9 9 9 9 9 10 9 10 10 10 10 11 10 11 11 10 10 9 9 11 12 11 11 12 11 8 6 8 7 6 8 8 6 8 13 17 20 10 4 4 8 9 7 7 7 8 8 7 6 4
3 5 5 5 5 4 4 4 4 5 4 3 4 4 5 4 4 5 6 7 6 7 7 8 8 9 9 9 9 9 10 10 10 10 11 10 11 11 13 12 10 10 8 10 10 11 12 10 11 12 6 3 5 8 10 11 13 11 10 11 16 20 21 19 9 2 6 8 10 10 10 9 8 5
4 5 5 5 5 5 5 5 5 6 5 5 6 5 5 5 5 6 6 6 6 6 6 7 7 8 8 9 9 9 9 9 9 10 10 10 11 11 12 10 10 10 9 9 10 9 9 9 10 8 7 9 10 14 13 10 8 7 8 7 8 14 19 20 21 17 11 4 2 7 7 6 5 7
3 5 5 4 4 4 5 5 5 6 5 5 6 5 5 5 5 5 6 6 6 7 7 7 7 7 7 8 8 8 8 9 9 9 9 9 10 10 10 9 8 7 8 8 5 5 7 9 9 9 9 10 9 9 10 9 8 6 7 6 6 7 9 14 16 18 17 19 17 9 2 4 7 7
4 4 4 4 4 5 5 5 6 6 6 6 6 5 6 6 6 6 6 6 7 7 7 7 7 7 7 7 8 8 8 8 8 8 8 8 8 8 8 9 9 8 8 8 7 6 5 6 7 8 8 9 7 9 9 8 8 7 6 6 5 6 8 8 9 11 13 21 23 22 23 22 17 14
4 3 4 4 5 5 5 5 6 6 6 6 6 6 5 6 6 6 6 6 7 7 7 7 8 7 7 7 8 8 8 9 8 7 7 7 7 7 7 8 9 9 9 8 7 8 6 5 5 5 6 6 6 7 8 7 7 6 7 7 8 6 6 7 8 8 9 10 16 21 19 19 18 20
Wind_Direction
250 248 256 262 263 267 263 209 195 222 239 241 248 242 268 288 299 310 309 304 305 304 306 304 293 275 276 268 258 246 237 230 222 228 229 229 228 228 226 226 226 227 227 227 228 228 229 229 228 226 224 225 226 228 230 231 231 232 233 233 233 234 234 233 233 234 234 236 237 237 235 234 236 240
285 243 271 279 276 271 284 260 235 238 248 262 257 260 257 253 280 295 301 302 299 295 295 278 294 298 289 289 284 263 251 251 236 231 229 229 230 227 222 222 223 225 226 227 227 229 229 229 228 227 226 224 225 227 229 230 230 231 232 233 234 234 234 233 232 233 235 236 236 235 234 234 234 236
277 287 279 268 262 269 254 280 335 318 313 300 296 290 280 265 268 300 307 305 306 321 305 303 293 295 295 290 286 286 270 257 247 238 232 232 232 227 223 219 219 222 225 226 228 229 230 230 228 227 226 225 225 226 228 230 230 230 230 232 234 234 233 233 232 233 235 237 237 234 233 233 234 234
237 252 271 254 255 253 226 206 85 341 317 321 325 318 314 278 273 290 294 293 298 310 302 302 302 295 290 283 278 278 279 271 258 243 235 233 233 229 231 223 219 219 223 226 227 227 226 226 226 226 225 225 226 227 228 229 231 231 231 232 233 233 234 233 233 233 235 237 237 236 234 235 236 237
290 277 249 257 257 242 201 193 172 210 280 304 303 305 289 280 270 268 282 292 299 301 296 300 300 300 297 285 268 269 270 273 267 249 239 234 230 225 222 226 222 218 220 226 230 230 228 226 225 225 225 225 226 228 229 230 231 232 233 232 232 233 233 234 234 235 237 237 237 237 237 236 237 237
250 250 254 269 261 247 213 193 182 198 235 253 295 285 283 281 280 263 272 283 292 302 312 306 304 298 295 285 276 267 268 268 268 262 252 237 234 232 234 232 229 219 219 217 220 226 228 227 226 225 225 225 226 227 229 230 230 232 232 232 232 232 232 233 233 235 236 237 237 236 236 236 236 238
277 259 239 248 251 240 224 221 204 194 201 220 251 270 266 274 275 279 269 284 295 301 304 305 304 305 301 290 289 274 265 266 267 268 261 247 233 231 233 237 239 226 217 220 224 228 229 229 227 226 225 225 226 227 228 229 230 230 231 231 232 231 231 231 232 234 235 235 235 235 235 234 235 237
261 254 249 248 244 231 230 236 220 204 200 217 236 257 262 258 271 274 277 273 284 295 300 304 301 303 301 293 282 280 271 265 263 262 268 260 245 238 232 229 233 231 222 217 216 220 223 226 227 227 226 226 226 226 226 227 228 229 229 229 230 231 230 229 230 231 232 232 233 233 233 233 233 234
259 259 250 249 244 229 228 237 223 217 223 229 236 252 262 260 267 275 278 283 283 289 294 298 296 295 289 286 282 276 274 271 265 263 260 257 251 245 239 231 230 232 225 223 221 218 218 221 224 226 226 227 227 226 225 225 226 227 227 228 229 230 229 228 228 228 229 230 230 230 231 232 232 232
253 243 247 250 244 264 285 266 244 228 230 237 246 257 264 266 270 276 283 284 287 288 289 292 297 294 294 294 283 279 269 269 268 261 259 261 256 252 249 239 234 225 224 227 231 230 228 225 224 224 225 226 227 226 225 224 224 225 226 227 228 229 229 228 227 226 227 228 229 228 229 229 230 231
245 247 254 261 97 121 219 255 255 238 240 242 254 252 260 266 273 283 289 291 290 289 292 291 282 289 288 285 293 286 274 270 265 267 273 267 253 243 236 243 237 227 228 234 223 218 216 221 223 226 227 227 227 226 225 225 224 224 225 225 226 227 228 227 226 225 225 226 227 227 226 227 227 228
251 257 260 214 191 210 225 244 249 231 246 238 251 255 255 264 272 283 290 292 291 292 294 291 297 293 295 296 283 285 281 277 270 251 249 258 257 248 237 229 232 227 224 234 238 229 223 229 231 231 227 226 226 226 227 227 224 224 224 224 225 226 226 225 224 224 224 224 225 225 224 223 224 225
270 266 263 226 232 225 241 242 248 248 239 230 242 261 258 266 272 283 291 290 287 290 293 296 295 295 297 294 297 296 289 275 270 268 249 255 256 255 252 245 224 217 219 231 233 236 223 224 223 218 227 230 227 230 224 225 224 223 222 222 223 224 223 223 222 222 222 222 223 223 221 220 221 222
277 271 263 237 246 247 254 261 264 262 251 225 219 241 260 270 276 283 289 288 288 291 296 298 302 304 301 299 297 293 290 289 283 272 263 260 259 255 254 255 234 208 211 220 233 237 224 221 230 221 226 227 208 218 213 220 219 220 219 220 221 222 222 222 221 221 220 220 221 220 219 218 219 220
276 278 273 268 270 272 268 265 263 265 247 222 227 238 245 245 247 278 279 281 286 291 294 296 296 295 296 294 292 289 290 287 284 277 267 259 258 250 248 252 251 206 200 216 230 240 223 215 227 226 227 225 213 211 218 215 215 216 214 216 218 220 221 222 222 221 219 219 219 218 217 217 218 219
262 267 275 273 267 266 259 257 267 272 259 246 247 247 243 250 248 238 243 268 285 284 290 294 295 296 295 294 292 289 288 287 288 282 274 260 250 248 245 246 244 209 190 212 220 240 220 209 222 230 227 223 217 215 214 210 209 212 214 214 215 217 219 221 222 221 218 217 217 217 216 217 218 218
255 261 272 283 279 272 274 275 270 266 268 264 263 262 274 273 265 266 258 243 244 266 274 287 291 295 299 296 291 287 287 289 284 287 283 276 257 242 245 244 246 229 191 206 223 234 224 195 214 230 231 221 218 218 210 207 207 210 213 213 213 214 216 219 220 220 218 216 216 216 215 216 217 217
254 252 258 270 283 282 280 272 269 271 273 283 285 283 277 280 285 283 272 268 258 248 254 273 292 296 296 291 286 283 278 274 272 272 272 276 269 251 243 246 247 238 187 203 210 233 227 183 195 234 236 218 220 220 207 203 208 209 210 212 212 213 216 218 219 218 218 217 216 214 214 215 216 217
251 250 249 259 265 270 273 262 264 281 272 283 281 280 283 286 286 284 289 288 289 289 287 286 291 296 294 289 283 280 275 267 262 258 261 265 270 274 265 263 253 255 234 210 192 232 223 180 195 222 225 216 224 219 215 200 206 208 207 210 212 213 214 217 218 217 216 217 216 213 213 214 214 215
247 248 254 259 264 266 260 280 306 144 216 261 279 281 285 291 286 286 282 277 274 274 283 290 289 289 286 284 284 281 279 275 268 260 254 257 262 271 265 249 238 234 218 214 196 230 235 180 198 227 222 213 225 222 222 208 204 205 206 208 210 213 215 216 217 216 215 215 213 211 211 211 212 214
262 258 258 249 256 264 285 99 143 183 199 267 280 285 287 284 289 292 298 299 302 302 298 293 287 281 279 278 278 277 273 267 259 253 244 240 238 243 251 247 231 229 202 210 193 211 233 210 208 222 207 206 220 221 220 219 203 205 206 207 209 212 215 217 217 215 212 210 208 208 208 208 209 211
271 269 272 291 290 291 184 162 151 185 283 277 280 282 288 295 297 297 303 313 309 308 306 300 293 288 286 285 284 281 275 271 263 241 232 229 217 232 236 241 221 218 203 207 187 203 229 208 211 225 212 206 228 222 222 217 212 202 208 209 211 214 216 217 215 212 209 206 205 205 201 202 200 202
283 299 312 298 301 132 184 199 177 202 191 239 252 270 288 291 289 290 312 311 310 316 319 316 315 310 306 305 308 311 302 292 288 260 221 219 211 222 229 231 220 223 220 201 177 204 221 202 213 201 198 224 239 219 218 213 213 197 193 208 216 220 219 218 211 205 203 201 197 195 195 195 186 182
306 301 295 288 262 191 209 222 282 313 228 217 235 248 268 283 288 309 312 298 294 305 315 312 313 311 311 311 312 313 312 309 309 297 233 212 211 214 226 222 213 220 215 190 174 198 208 192 213 192 191 186 240 228 193 214 204 194 187 187 197 195 186 182 187 191 187 188 188 190 189 185 179 176
292 295 287 285 293 293 209 262 289 272 225 204 209 233 258 287 296 302 293 292 304 316 313 313 313 315 318 317 317 314 313 313 315 311 259 222 213 212 218 219 211 222 219 188 178 194 199 181 205 177 185 187 230 10 297 206 169 158 164 170 164 157 162 167 162 162 179 182 184 184 183 181 185 185
273 269 276 295 296 7 276 292 325 299 264 220 209 266 276 290 299 298 285 297 324 322 316 315 315 318 321 323 322 319 318 318 316 315 296 233 217 216 219 217 210 212 212 195 182 192 187 195 194 175 150 186 244 148 237 232 169 165 156 171 181 168 151 138 151 162 155 157 164 181 184 183 188 196
279 279 283 282 289 317 307 301 324 299 273 260 250 292 309 315 317 320 326 330 333 326 320 318 318 320 322 325 325 324 325 323 321 317 308 277 220 216 217 219 219 221 216 188 191 195 189 199 176 173 174 193 191 140 127 183 244 157 176 184 151 137 162 154 166 162 159 163 171 172 174 183 191 200
278 289 285 292 301 301 294 294 306 277 243 252 282 318 335 335 328 332 337 346 333 317 322 327 321 322 324 323 323 324 324 320 317 315 307 287 232 211 214 214 218 219 215 202 198 201 192 182 162 174 161 163 171 192 206 141 328 212 185 169 147 153 163 166 162 155 164 161 145 150 147 162 201 197
268 287 298 298 295 292 289 286 296 225 238 253 300 321 355 1 346 346 344 333 319 327 335 323 316 320 324 321 319 317 317 315 317 321 320 302 254 210 208 212 213 215 213 214 205 198 190 186 175 155 148 166 173 186 170 179 174 216 195 156 185 182 177 180 178 174 170 175 170 164 184 168 170 188
315 307 297 293 288 290 295 21 130 191 213 282 307 312 23 5 348 342 334 331 332 334 328 322 322 320 318 322 322 320 321 327 336 335 333 332 295 210 197 202 214 218 215 209 200 192 185 174 162 160 159 172 182 181 185 159 184 209 204 194 175 126 186 180 184 175 169 184 181 184 185 184 179 167
317 304 301 294 288 277 312 31 86 90 346 322 324 345 8 4 341 334 325 316 317 318 324 326 320 318 319 316 328 337 338 338 341 343 341 346 344 300 200 192 202 213 217 217 193 188 176 167 163 159 160 166 166 194 175 150 157 175 195 190 170 189 180 176 178 172 177 172 169 173 178 180 177 185
304 297 304 302 322 86 68 62 56 88 22 7 347 331 335 336 328 340 335 320 298 302 317 318 322 332 334 332 334 336 340 340 343 351 352 1 6 358 294 158 202 200 201 202 183 174 181 168 169 176 173 166 170 166 141 143 161 180 188 202 207 175 106 179 177 172 166 158 164 187 186 184 179 183
301 308 309 338 34 65 60 42 18 6 18 359 342 337 334 354 350 341 358 352 341 330 335 341 339 336 338 333 336 339 342 345 346 351 1 8 11 18 9 300 214 181 194 188 173 153 178 199 182 174 171 174 172 159 157 175 188 193 199 194 184 192 196 176 184 170 155 162 182 180 187 193 185 183
303 299 352 53 39 45 54 41 22 4 3 357 350 343 344 0 0 355 356 350 337 332 339 341 339 344 339 340 340 342 346 343 348 350 2 5 9 24 18 17 9 336 246 197 173 170 167 160 140 108 96 74 57 106 159 164 176 193 205 196 183 196 197 180 178 179 174 181 171 175 190 196 193 191
250 8 60 45 42 34 45 41 29 13 6 356 358 353 351 3 2 353 357 347 337 338 343 343 343 344 344 342 342 342 344 344 346 350 354 6 14 22 19 19 13 3 357 344 258 185 168 158 147 123 116 121 110 27 43 35 181 183 190 191 189 182 182 188 180 176 184 172 167 179 189 193 199 198
37 63 63 51 42 38 37 30 28 25 10 358 4 352 359 3 3 355 358 342 337 334 346 349 348 346 338 342 342 344 344 345 345 349 355 3 12 18 16 19 18 10 354 355 15 11 323 173 155 148 141 151 142 142 152 37 47 206 178 190 188 185 172 172 174 170 180 176 177 177 183 194 200 194
69 64 66 54 46 40 41 29 32 21 12 352 359 356 354 2 359 353 349 337 339 341 346 345 344 341 341 342 341 346 349 352 347 350 358 354 1 11 13 19 20 7 9 3 3 18 0 2 128 152 154 154 158 169 129 69 57 46 346 195 184 189 173 168 164 186 187 172 182 189 185 182 197 195
71 77 75 66 55 49 55 48 29 32 13 360 351 342 345 8 357 352 348 353 355 348 350 350 346 347 349 346 347 343 349 352 350 354 356 1 2 4 15 19 15 10 8 1 4 15 3 6 56 46 81 140 161 145 144 47 29 19 9 324 217 191 176 172 185 188 183 188 186 181 157 197 196 191
75 84 92 91 85 77 62 51 39 29 21 5 359 350 346 8 6 358 8 3 355 353 353 352 352 349 348 347 350 347 344 354 358 354 355 3 5 2 6 12 14 10 10 8 2 8 9 22 37 53 70 68 58 56 86 109 61 55 31 31 347 188 177 186 188 169 180 167 142 101 72 80 90 111
60 72 88 98 108 99 68 37 15 23 31 28 8 357 360 8 13 8 10 4 359 356 357 358 349 346 350 350 351 350 347 358 2 354 357 358 2 8 5 1 8 11 15 15 14 6 8 14 22 28 41 73 83 83 93 101 128 66 49 33 32 39 7 221 177 172 179 159 142 138 143 141 141 165
71 64 47 49 39 30 48 35 28 19 20 26 19 15 10 358 20 20 16 5 358 358 1 357 354 352 349 347 354 354 352 348 356 360 2 1 3 10 9 7 7 0 11 21 15 14 10 0 6 13 20 30 95 101 74 61 50 48 51 43 34 43 48 48 22 269 156 158 164 157 152 151 149 135
52 66 52 47 45 25 23 27 30 28 11 17 23 26 14 8 12 26 16 6 1 0 358 356 355 352 351 350 350 352 358 351 354 358 1 1 2 5 10 13 6 358 4 18 12 4 355 349 355 5 15 40 52 68 74 74 70 52 57 48 42 44 49 49 48 40 30 19 210 157 123 119 131 132
78 77 61 47 45 30 25 18 36 34 17 17 25 22 22 8 9 13 13 6 2 1 357 353 348 352 353 352 350 351 351 354 357 358 358 5 6 3 4 3 357 355 4 3 4 342 349 352 355 8 20 40 42 58 74 75 70 62 52 42 46 56 45 46 45 36 26 45 44 28 17 147 152 150
68 85 70 56 43 36 21 23 32 38 28 24 19 17 27 15 12 14 8 4 358 354 351 347 342 348 349 350 352 350 358 357 353 355 0 3 1 359 360 359 357 359 6 8 353 357 358 2 356 358 23 34 30 47 53 58 66 59 59 56 46 41 58 51 34 25 22 31 30 34 46 61 66 77
46 81 95 71 63 50 38 35 45 40 34 26 23 16 27 25 18 7 9 2 357 350 348 348 343 339 339 348 355 356 355 354 354 356 355 358 0 360 360 1 1 1 5 358 358 356 357 358 1 6 28 31 33 50 54 58 60 55 49 53 54 40 39 52 48 41 30 22 16 30 37 47 61 73